[[{"header":{"parameterUnit":"m.s-1","parameterCategory":1,"la1":30.2991,"la2":30.254,"lo1":-89.0895,"lo2":-89.0444,"dy":0.0017,"dx":0.0017,"nx":28,"ny":28,"refTime":"2024-03-08T09:00:00:Z","depth":0,"parameterNumber":2,"parameterNumberName":"U-component_of_WINDS"},"data":[0,0,0,0,0,0,0,0,0,0,0,0,0,0,0,0,0,0,0,0,0,0,0,0,0,0,0,0,0,0,0,0,0,0,0,0,0,0,0,0,0,0,0,0,0,0,0,0,0,0,0,0,0,0,0,0,0,0,-3.7223,-3.7224,0,-3.7339,-3.7341,-3.7342,-3.737,-3.7369,-3.7368,-3.7368,-3.7483,-3.7487,-3.7491,0,0,0,0,0,0,0,0,0,0,0,0,0,-3.7021,-3.7025,-3.7223,-3.7224,-3.7226,-3.7339,-3.7341,-3.7342,-3.737,-3.7369,-3.7368,-3.7367,-3.7482,-3.7486,-3.7491,0,0,0,0,0,0,0,0,0,0,0,0,0,-3.712,-3.7026,-3.7222,-3.7253,-3.7257,-3.7339,-3.7341,-3.7343,-3.737,-3.7369,-3.7368,-3.7367,-3.748,-3.7486,-3.7492,-3.755,0,0,-3.7509,-3.7511,0,0,0,0,0,0,0,0,-3.7115,-3.7128,-3.7247,-3.7251,-3.7256,-3.7339,-3.7312,-3.7412,-3.7371,-3.7327,-3.7368,-3.7366,-3.7436,-3.7445,-3.7469,-3.7555,-3.756,-3.7509,-3.7513,-3.7515,-3.7517,0,0,0,0,0,0,0,-3.7108,-3.7123,-3.7269,-3.7249,-3.7254,-3.726,-3.7273,-3.7331,-3.7386,-3.7331,-3.7333,-3.7347,-3.7438,-3.7464,-3.7472,-3.7562,-3.7509,-3.7514,-3.7518,-3.752,-3.77,-3.7701,0,0,0,0,0,0,-3.7096,-3.7117,-3.7265,-3.7272,-3.7181,-3.7265,-3.7279,-3.7313,-3.7386,-3.7396,-3.7348,-3.7348,-3.7455,-3.7466,-3.7476,-3.7548,-3.7515,-3.7521,-3.7524,-3.7699,-3.77,-3.7702,0,0,0,0,0,0,-3.7092,-3.7109,-3.726,-3.7195,-3.7215,-3.727,-3.7308,-3.7316,-3.7342,-3.7399,-3.7408,-3.7364,-3.7454,-3.7468,-3.7531,-3.7553,-3.7523,-3.7528,-3.7697,-3.7699,-3.7701,-3.7693,0,0,0,0,0,0,-3.7086,-3.7107,-3.713,-3.7196,-3.7218,-3.7314,-3.7309,-3.7319,-3.7352,-3.7354,-3.7417,-3.7426,-3.7454,-3.7523,-3.7537,-3.756,-3.7533,-3.7695,-3.7698,-3.77,-3.7691,-3.7694,-3.7697,0,0,0,0,0,-3.7078,-3.7123,-3.7131,-3.7149,-3.7249,-3.7315,-3.7328,-3.7361,-3.7354,-3.7377,-3.7414,-3.7424,-3.7549,-3.7529,-3.7545,-3.757,-3.7694,-3.7697,-3.77,-3.769,-3.7694,-3.7697,0,0,0,0,0,0,-3.7057,-3.7132,-3.7142,-3.7209,-3.7256,-3.732,-3.735,-3.7364,-3.7413,-3.7411,-3.7449,-3.7463,-3.7523,-3.7553,-3.753,-3.763,-3.7621,-3.7627,-3.7608,-3.7612,-3.7614,-3.7605,-3.7537,0,0,0,0,0,-3.7061,-3.711,-3.7172,-3.7225,-3.7248,-3.7295,-3.7325,-3.7347,-3.7396,-3.7415,-3.7456,-3.7503,-3.7552,-3.7584,-3.7633,-3.7697,-3.771,-3.7722,-3.7725,-3.7727,-3.7731,-3.7766,-3.7772,-3.7712,-3.7712,-3.7712,0,0,-3.7068,-3.7114,-3.7143,-3.7222,-3.726,-3.7309,-3.7311,-3.7363,-3.7399,-3.7423,-3.7485,-3.7516,-3.7571,-3.7634,-3.7664,-3.7661,-3.7751,-3.773,-3.7732,-3.7735,-3.777,-3.7775,-3.778,-3.7714,-3.7714,-3.7713,0,0,-3.7105,-3.7146,-3.7194,-3.7233,-3.7292,-3.7324,-3.7335,-3.7398,-3.742,-3.7483,-3.7502,-3.7545,-3.763,-3.7668,-3.7698,-3.775,-3.7761,-3.7765,-3.7779,-3.7812,-3.7817,-3.7821,-3.7839,-3.7845,-3.777,-3.777,-3.777,0,-3.7105,-3.7181,-3.7217,-3.7268,-3.7301,-3.7327,-3.7376,-3.7412,-3.7483,-3.7505,-3.7501,-3.7609,-3.7647,-3.7719,-3.7732,-3.7756,-3.7769,-3.7757,-3.7814,-3.7818,-3.7823,-3.784,-3.7846,-3.777,-3.777,-3.777,-3.777,0,-3.7178,-3.723,-3.7262,-3.7331,-3.7368,-3.7418,-3.7461,-3.7494,-3.7513,-3.7544,-3.7608,-3.7655,-3.7714,-3.7733,-3.7751,-3.7807,-3.7804,-3.7806,-3.7798,-3.7828,-3.7844,-3.7851,-3.777,-3.777,-3.777,-3.777,0,0,-3.7203,-3.7293,-3.7304,-3.7336,-3.7403,-3.7443,-3.7494,-3.7552,-3.7579,-3.7628,-3.767,-3.7742,-3.7745,-3.778,-3.7803,-3.7832,-3.7869,-3.7832,-3.7833,-3.7835,-3.7933,-3.7929,-3.7936,-3.7878,-3.7879,-3.7881,-3.7928,0,-3.7248,-3.7339,-3.7374,-3.7448,-3.7496,-3.7522,-3.7565,-3.7611,-3.7642,-3.7686,-3.772,-3.7769,-3.777,-3.7791,-3.7822,-3.7858,-3.7889,-3.7856,-3.7916,-3.7917,-3.7899,-3.7945,-3.7941,-3.7983,-3.7935,-3.7936,-3.7937,0,-3.7311,-3.7361,-3.7441,-3.7502,-3.7523,-3.7562,-3.7618,-3.7661,-3.7713,-3.7733,-3.7772,-3.7793,-3.7846,-3.7836,-3.7908,-3.7884,-3.7911,-3.7933,-3.7935,-3.794,-3.7927,-3.795,-3.7998,-3.8003,-3.7947,-3.7947,-3.7946,0,-3.732,-3.7408,-3.7466,-3.7493,-3.7566,-3.7592,-3.7624,-3.7675,-3.7708,-3.7757,-3.7779,-3.7833,-3.7862,-3.7903,-3.7938,-3.7928,-3.8007,-3.8,-3.8024,-3.8023,-3.8037,-3.8036,-3.8089,-3.8058,-3.8058,-3.8057,-3.8057,0,-3.7365,-3.7412,-3.7471,-3.7507,-3.756,-3.76,-3.7651,-3.7684,-3.7729,-3.7771,-3.7797,-3.7836,-3.7881,-3.7925,-3.7952,-3.8007,-3.8021,-3.8037,-3.8044,-3.8034,-3.8032,-3.8051,-3.8048,-3.8059,-3.8059,-3.8059,-3.8058,0,-3.7383,-3.7425,-3.749,-3.7555,-3.7572,-3.7608,-3.7663,-3.7698,-3.7731,-3.7784,-3.7798,-3.7849,-3.7902,-3.7942,-3.8011,-3.8029,-3.8087,-3.8095,-3.807,-3.8073,-3.8094,-3.8091,-3.816,-3.817,-3.8133,-3.8134,-3.8134,0,-3.7408,-3.7444,-3.7513,-3.7544,-3.7576,-3.7624,-3.7658,-3.7699,-3.7733,-3.7795,-3.7822,-3.7878,-3.7924,-3.8008,-3.805,-3.8103,-3.8111,-3.8131,-3.8119,-3.8108,-3.8109,-3.8106,-3.8109,-3.8132,-3.8133,-3.8133,-3.8133,0,-3.7447,-3.7466,-3.7514,-3.757,-3.7611,-3.7656,-3.7702,-3.7726,-3.7774,-3.7811,-3.7866,-3.7902,-3.7973,-3.8027,-3.8084,-3.8116,-3.8132,-3.8137,-3.8145,-3.8134,-3.8118,-3.8126,-3.8073,-3.8135,-3.8134,-3.8134,-3.8134,-3.8134,-3.7468,-3.7502,-3.7556,-3.7609,-3.7648,-3.769,-3.7727,-3.7764,-3.7812,-3.7873,-3.7894,-3.7951,-3.8001,-3.808,-3.8112,-3.8157,-3.8156,-3.8168,-3.8171,-3.8173,-3.8171,-3.8112,-3.8167,-3.8167,-3.8167,-3.8167,-3.8167,0,-3.7508,-3.7544,-3.7592,-3.7656,-3.7698,-3.7711,-3.7763,-3.7797,-3.7847,-3.7893,-3.7939,-3.8002,-3.8055,-3.8102,-3.8157,-3.8183,-3.8192,-3.8196,-3.8193,-3.82,-3.8169,-3.8156,-3.8188,-3.8188,-3.8188,-3.8188,-3.8188,-3.8188,-3.7533,-3.7591,-3.7616,-3.7693,-3.7729,-3.7785,-3.7813,-3.7852,-3.789,-3.796,-3.8004,-3.8035,-3.8081,-3.814,-3.8189,-3.8201,-3.8219,-3.8221,-3.8235,-3.8205,-3.8202,-3.82,-3.8188,-3.8225,-3.8225,-3.8262,-3.8262,-3.8263]},{"header":{"parameterUnit":"m.s-1","parameterCategory":1,"la1":30.2991,"la2":30.254,"lo1":-89.0895,"lo2":-89.0444,"dy":0.0017,"dx":0.0017,"nx":28,"ny":28,"refTime":"2024-03-08T09:00:00:Z","depth":0,"parameterNumber":3,"parameterNumberName":"V-component_of_WINDS"},"data":[0,0,0,0,0,0,0,0,0,0,0,0,0,0,0,0,0,0,0,0,0,0,0,0,0,0,0,0,0,0,0,0,0,0,0,0,0,0,0,0,0,0,0,0,0,0,0,0,0,0,0,0,0,0,0,0,0,0,1.7049,1.7051,0,1.7195,1.7197,1.7198,1.7269,1.7269,1.7269,1.7269,1.742,1.7424,1.7428,0,0,0,0,0,0,0,0,0,0,0,0,0,1.6835,1.6838,1.7049,1.7051,1.7052,1.7195,1.7197,1.7199,1.7269,1.7269,1.7269,1.7269,1.7418,1.7423,1.7428,0,0,0,0,0,0,0,0,0,0,0,0,0,1.6949,1.684,1.7049,1.7105,1.7111,1.7194,1.7197,1.7199,1.7269,1.7269,1.7269,1.7269,1.7417,1.7423,1.7429,1.7467,0,0,1.7447,1.745,0,0,0,0,0,0,0,0,1.6942,1.6957,1.7095,1.7101,1.7108,1.7214,1.7177,1.7289,1.7269,1.7209,1.7269,1.7269,1.7351,1.7363,1.739,1.7474,1.7481,1.7448,1.7451,1.7454,1.7456,0,0,0,0,0,0,0,1.6934,1.6951,1.7107,1.7097,1.7105,1.7124,1.714,1.7198,1.7279,1.7214,1.722,1.7236,1.7355,1.7384,1.7394,1.7483,1.7447,1.7453,1.7457,1.7459,1.761,1.7611,0,0,0,0,0,0,1.6917,1.6944,1.7102,1.7111,1.7024,1.7128,1.7146,1.718,1.7278,1.7293,1.7236,1.7239,1.7374,1.7387,1.74,1.7454,1.7454,1.746,1.7463,1.761,1.761,1.7611,0,0,0,0,0,0,1.6912,1.693,1.7096,1.7029,1.7052,1.7132,1.7169,1.7183,1.7212,1.7295,1.731,1.7251,1.7374,1.7391,1.7451,1.746,1.7462,1.7468,1.761,1.761,1.7611,1.7561,0,0,0,0,0,0,1.6906,1.6928,1.6942,1.7029,1.7055,1.7143,1.717,1.7186,1.7222,1.7228,1.7313,1.7327,1.7376,1.7441,1.7457,1.7469,1.7473,1.7609,1.761,1.761,1.7562,1.756,1.7558,0,0,0,0,0,1.6898,1.6922,1.6943,1.6961,1.7074,1.7144,1.7159,1.7214,1.7223,1.7239,1.7293,1.7324,1.7457,1.7447,1.7465,1.7479,1.7609,1.761,1.761,1.7563,1.756,1.7558,0,0,0,0,0,0,1.6834,1.6934,1.6958,1.7011,1.7068,1.7155,1.7177,1.7209,1.7265,1.7268,1.7335,1.7353,1.7408,1.7449,1.7436,1.7523,1.7536,1.754,1.7494,1.7492,1.749,1.7479,1.7478,0,0,0,0,0,1.6826,1.6873,1.6959,1.6997,1.7025,1.7096,1.7128,1.7166,1.7228,1.7253,1.7311,1.7371,1.7427,1.7461,1.7517,1.7569,1.759,1.7588,1.7586,1.7583,1.7587,1.7621,1.7622,1.7614,1.7614,1.7614,0,0,1.681,1.6871,1.6896,1.6986,1.7035,1.7084,1.7116,1.7165,1.7203,1.7261,1.7321,1.7366,1.7437,1.7494,1.7522,1.753,1.7594,1.7584,1.7582,1.7587,1.7622,1.7622,1.7623,1.7614,1.7614,1.7614,0,0,1.6807,1.6856,1.6895,1.6944,1.7018,1.7066,1.7075,1.7159,1.7191,1.7253,1.7298,1.7345,1.7438,1.7488,1.7526,1.7545,1.7578,1.7562,1.755,1.7583,1.7584,1.7584,1.7594,1.7596,1.7565,1.7564,1.7564,0,1.6778,1.6852,1.6911,1.6959,1.6999,1.7054,1.7096,1.7141,1.7229,1.7256,1.7264,1.7385,1.7437,1.7508,1.7513,1.7541,1.7556,1.7552,1.7578,1.758,1.7582,1.7591,1.7595,1.7562,1.7562,1.7563,1.7563,0,1.6814,1.6865,1.6888,1.6973,1.7015,1.7059,1.7127,1.7163,1.7198,1.7246,1.731,1.7375,1.7446,1.7465,1.75,1.7543,1.7546,1.7565,1.7579,1.7579,1.759,1.7594,1.7559,1.756,1.756,1.7561,0,0,1.6772,1.6892,1.6899,1.694,1.7027,1.7069,1.7117,1.7187,1.7218,1.7278,1.7322,1.7402,1.7422,1.7464,1.7505,1.7534,1.7549,1.7551,1.7554,1.755,1.7603,1.7588,1.7591,1.7571,1.7572,1.7572,1.7598,0,1.6782,1.687,1.6927,1.6993,1.7043,1.7099,1.7141,1.7201,1.7247,1.7298,1.735,1.7406,1.7427,1.7454,1.7484,1.754,1.756,1.7539,1.7614,1.7616,1.7595,1.7596,1.758,1.7601,1.7602,1.7602,1.7603,0,1.6804,1.6864,1.6935,1.7021,1.7044,1.7081,1.7152,1.7198,1.7268,1.7301,1.735,1.7393,1.7449,1.7458,1.7537,1.7522,1.7556,1.7589,1.7591,1.7601,1.7609,1.7607,1.7609,1.7612,1.7609,1.7609,1.7608,0,1.6769,1.6867,1.6924,1.6957,1.7057,1.7082,1.7125,1.7195,1.7235,1.7297,1.7325,1.7392,1.7429,1.7482,1.7543,1.7544,1.7617,1.7631,1.7647,1.7645,1.766,1.7658,1.7668,1.768,1.768,1.768,1.7679,0,1.6774,1.6816,1.691,1.6944,1.6994,1.706,1.7108,1.7156,1.7219,1.7265,1.7318,1.736,1.7438,1.7491,1.7539,1.7599,1.7615,1.7644,1.7656,1.764,1.7636,1.7663,1.7664,1.768,1.768,1.768,1.768,0,1.6743,1.6807,1.6872,1.6963,1.6987,1.702,1.7099,1.7136,1.7186,1.7245,1.7263,1.7342,1.7408,1.7474,1.7562,1.7595,1.7654,1.767,1.763,1.7638,1.7651,1.7649,1.7679,1.7687,1.7692,1.7692,1.7691,0,1.6742,1.6776,1.6871,1.6906,1.6948,1.7004,1.7045,1.7113,1.7154,1.7238,1.7266,1.7336,1.7395,1.7498,1.7564,1.7633,1.7652,1.7658,1.7663,1.7646,1.7655,1.7652,1.7657,1.7656,1.7655,1.7655,1.7655,0,1.6735,1.6766,1.6823,1.6893,1.6941,1.6999,1.7059,1.7085,1.7164,1.7209,1.7277,1.7323,1.7415,1.7484,1.7561,1.7608,1.7646,1.7653,1.7661,1.7645,1.7621,1.7636,1.7626,1.7652,1.7652,1.7652,1.7653,1.7653,1.6721,1.6755,1.6828,1.6891,1.6944,1.6999,1.7039,1.7096,1.7154,1.7234,1.727,1.7339,1.7413,1.752,1.7567,1.7623,1.7633,1.7643,1.7646,1.7648,1.7645,1.7611,1.7637,1.7637,1.7637,1.7638,1.7638,0,1.6718,1.6768,1.6826,1.6909,1.696,1.6991,1.706,1.7101,1.7161,1.7225,1.7283,1.7364,1.7432,1.7505,1.7579,1.761,1.763,1.7628,1.7626,1.7637,1.7631,1.7618,1.7611,1.7611,1.7611,1.7611,1.7611,1.7611,1.6722,1.6783,1.6823,1.6911,1.6962,1.703,1.7067,1.712,1.7172,1.7259,1.7317,1.7364,1.7434,1.7513,1.7579,1.7599,1.7624,1.7617,1.7642,1.7635,1.7637,1.7639,1.7627,1.7622,1.7622,1.7644,1.7644,1.7644]}]]